This demonstration page uses our WeatherBlox Daily Observations layout. Learn more.

Left ArrowRight Arrow

31.84235, -102.49876

Hourly Observations for May 1, 2021

Temp ( °F °C ) Dew Point ( °F °C ) Humidity (%) Winds ( mph kmh ) Pressure ( in mb ) Visibility ( mi km ) Precip ( " mm )
12:41 am 00:41 Mostly Cloudy with Nearby Thunderstorms 58 14.4 56 13.3 93 93 Calm 30.09 1019 7 11 0.00 0.00
12:53 am 00:53 Cloudy with Nearby Thunderstorms 58 14.4 56 13.3 93 93 SE 3 6 30.09 1019 6 10 0.00 0.00
1:11 am 01:11 Cloudy with Nearby Thunderstorms 58 14.4 56 13.3 93 93 SSE 3 6 30.12 1020 7 11 0.00 0.00
1:33 am 01:33 Cloudy with Light Rain 58 14.4 56 13.3 93 93 NW 7 11 30.09 1019 8 13 0.00 0.00
1:53 am 01:53 Mostly Cloudy with Light Rain 58 14.4 56 13.3 93 93 N 3 6 30.06 1018 7 11 0.00 0.00
2:53 am 02:53 Mostly Cloudy with Mist and Fog 58 14.4 55 12.8 90 90 NE 8 13 30.04 1017 6 10 0.00 0.00
3:53 am 03:53 Mostly Cloudy 58 14.4 55 12.8 90 90 N 5 7 30.01 1016 7 11 0.00 0.00
4:42 am 04:42 Cloudy with Light Rain 58 14.4 55 12.8 90 90 Calm 30.02 1017 5 8 0.00 0.00
4:53 am 04:53 Cloudy with Light Rain 58 14.4 55 12.8 90 90 Calm 29.99 1016 6 10 0.00 0.00
5:15 am 05:15 Cloudy with Mist and Fog 57 13.9 54 12.2 90 90 Calm 30.02 1016 6 10 0.00 0.00
5:53 am 05:53 Mostly Clear with Mist and Fog 56 13.3 54 12.2 93 93 Calm 29.98 1015 5 8 0.00 0.00
6:08 am 06:08 Mostly Cloudy with Mist and Fog 56 13.3 53 11.7 90 90 Calm 30.03 1017 4 6 0.00 0.00
6:53 am 06:53 Mostly Clear with Mist and Fog 55 12.8 53 11.7 93 93 N 3 6 29.99 1016 3 5 0.00 0.00
7:10 am 07:10 Partly Cloudy with Mist and Fog 55 12.8 53 11.7 93 93 NNW 3 6 30.04 1017 2 3 0.00 0.00
7:34 am 07:34 Sunny with Mist and Fog 55 12.8 53 11.7 93 93 WNW 5 7 30.04 1017 2 3 0.00 0.00
7:53 am 07:53 Partly Cloudy with Mist and Fog 56 13.3 54 12.2 93 93 NW 7 11 29.99 1016 2 3 0.00 0.00
8:04 am 08:04 Partly Cloudy with Mist and Fog 57 13.9 54 12.2 90 90 NW 8 13 30.03 1017 3 5 0.00 0.00
8:11 am 08:11 Mostly Cloudy with Mist and Fog 57 13.9 55 12.8 93 93 NW 8 13 30.03 1017 3 5 0.00 0.00
8:53 am 08:53 Cloudy with Mist and Fog 59 15 56 13.3 90 90 N 6 9 30.00 1016 5 8 0.00 0.00
9:26 am 09:26 Cloudy 61 16.1 57 13.9 87 87 VRB 3 6 30.01 1016 7 11 0.00 0.00
9:53 am 09:53 Mostly Cloudy 61 16.1 55 12.8 81 81 WNW 7 11 29.99 1016 10 16 0.00 0.00
10:50 am 10:50 Partly Cloudy 63 17 55 13 77 77 W 7 11 29.97 1015 10 16 0.00 0.00
10:53 am 10:53 Partly Cloudy 64 17.8 55 12.8 73 73 W 7 11 29.98 1015 10 16 0.00 0.00
11:27 am 11:27 Mostly Cloudy 65 18.3 55 12.8 70 70 VRB 3 6 29.96 1014 10 16 0.00 0.00
11:53 am 11:53 Mostly Cloudy 65 18.3 53 11.7 66 66 S 3 6 29.96 1015 10 16 0.00 0.00
12:00 pm 12:00 Partly Cloudy 66 18.9 54 12.2 65 65 VRB 3 6 29.94 1014 10 16 0.00 0.00
12:25 pm 12:25 Mostly Cloudy 66 18.9 54 12.2 65 65 SW 6 9 29.93 1014 10 16 0.00 0.00
12:32 pm 12:32 Mostly Cloudy 67 19.4 54 12.2 63 63 SSW 6 9 29.92 1013 10 16 0.00 0.00
12:53 pm 12:53 Mostly Sunny 68 20 54 12.2 61 61 S 6 9 29.93 1014 10 16 0.00 0.00
1:53 pm 13:53 undefined 70 21.1 53 11.7 55 55 ESE 7 11 29.90 1013 10 16 0.00 0.00
2:53 pm 14:53 Mostly Cloudy 72 22.2 53 11.7 52 52 VRB 7 11 29.87 1011 10 16 0.00 0.00
3:53 pm 15:53 Mostly Cloudy 72 22.2 52 11.1 50 50 SSW 9 15 29.83 1010 10 16 0.00 0.00
4:53 pm 16:53 Mostly Cloudy 73 22.8 52 11.1 48 48 SSW 5 7 29.78 1008 10 16 0.00 0.00
5:53 pm 17:53 Partly Cloudy 73 22.8 51 10.6 46 46 W 6 9 29.78 1008 10 16 0.00 0.00
6:53 pm 18:53 Sunny 73 22.8 51 10.6 46 46 WSW 8 13 29.75 1008 10 16 0.00 0.00
7:53 pm 19:53 Sunny 73 22.8 51 10.6 46 46 SW 10 17 29.74 1007 10 16 0.00 0.00
8:53 pm 20:53 Clear 69 20.6 53 11.7 57 57 SSW 7 11 29.74 1007 10 16 0.00 0.00
9:53 pm 21:53 Clear 67 19.4 53 11.7 61 61 SSW 8 13 29.73 1007 10 16 0.00 0.00
10:53 pm 22:53 Clear 65 18.3 54 12.2 68 68 S 7 11 29.72 1007 10 16 0.00 0.00
11:53 pm 23:53 Clear 63 17.2 54 12.2 73 73 S 9 15 29.71 1006 10 16 0.00 0.00

Powered by AerisWeather